DW2537 Weather Reports


Display with metric or nautical units.
time (UTC)temp
F
wind
direction
speed
MPH
gust
MPH
rain 1hr
in
rain 24hr
in
rain mn
in
humidity
%
barometer
mb
20260906203039 83 68 1.0 10.0 0.00 0.00 0.00 57 1014.3
20260906202518 82 128 1.0 10.0 0.00 0.00 0.00 57 1014.3
20260906202020 82 39 3.0 10.0 0.00 0.00 0.00 56 1014.3
20260906201541 82 151 4.0 10.0 0.00 0.00 0.00 57 1014.2
20260906201020 82 51 0.0 10.0 0.00 0.00 0.00 53 1014.2
20260906200046 81 34 2.0 8.0 0.00 0.00 0.00 57 1014.2
20260906194542 81 57 1.0 9.0 0.00 0.00 0.00 58 1014.4
20260906193521 83 96 1.0 8.0 0.00 0.00 0.00 53 1014.3
20260906193040 84 142 1.0 8.0 0.00 0.00 0.00 56 1014.4
20260906192521 83 55 2.0 8.0 0.00 0.00 0.00 55 1014.4
20260906191539 82 99 2.0 7.0 0.00 0.00 0.00 57 1014.4
20260906190045 82 44 1.0 8.0 0.00 0.00 0.00 56 1014.5
20260906184542 82 124 1.0 6.0 0.00 0.00 0.00 56 1014.6
20260906183520 81 57 3.0 9.0 0.00 0.00 0.00 58 1014.8
20260906183046 82 0 1.0 8.0 0.00 0.00 0.00 58 1014.8
20260906182520 82 62 2.0 8.0 0.00 0.00 0.00 53 1014.8
20260906181546 82 182 0.0 4.0 0.00 0.00 0.00 58 1014.7
20260906181020 82 0 1.0 4.0 0.00 0.00 0.00 55 1014.7
20260906180040 83 150 2.0 7.0 0.00 0.00 0.00 51 1014.9
20260906174544 81 34 1.0 10.0 0.00 0.00 0.00 55 1014.9
20260906173040 81 58 1.0 7.0 0.00 0.00 0.00 55 1015.1
20260906172020 82 59 2.0 7.0 0.00 0.00 0.00 57 1015.1
20260906171543 82 38 1.0 7.0 0.00 0.00 0.00 52 1015.1
20260906171021 82 88 1.0 6.0 0.00 0.00 0.00 57 1015.1
20260906170520 81 296 1.0 8.0 0.00 0.00 0.00 58 1015.1
20260906170039 81 67 2.0 8.0 0.00 0.00 0.00 58 1015.2
20260906165524 81 106 1.0 3.0 0.00 0.00 0.00 58 1015.2
20260906164546 80 51 2.0 5.0 0.00 0.00 0.00 59 1015.2
20260906163040 81 296 1.0 7.0 0.00 0.00 0.00 58 1015.2
20260906162018 81 54 1.0 5.0 0.00 0.00 0.00 59 1015.2
20260906161539 81 0 0.0 4.0 0.00 0.00 0.00 60 1015.2
20260906161021 80 176 1.0 4.0 0.00 0.00 0.00 61 1015.2
20260906160521 80 91 1.0 4.0 0.00 0.00 0.00 62 1015.3
20260906160040 80 15 1.0 7.0 0.00 0.00 0.00 61 1015.3
20260906154539 79 57 1.0 8.0 0.00 0.00 0.00 60 1015.4
20260906153521 79 159 1.0 4.0 0.00 0.00 0.00 59 1015.5
20260906153041 79 257 1.0 6.0 0.00 0.00 0.00 62 1015.5
20260906152020 78 101 2.0 4.0 0.00 0.00 0.00 62 1015.4
20260906151551 78 0 1.0 4.0 0.00 0.00 0.00 65 1015.4
20260906150043 78 32 0.0 4.0 0.00 0.00 0.00 63 1015.4
20260906144541 76 82 1.0 6.0 0.00 0.00 0.00 66 1015.1
20260906143038 75 65 1.0 4.0 0.00 0.00 0.00 69 1015.2
20260906142520 74 81 0.0 9.0 0.00 0.00 0.00 66 1015.2
20260906142021 74 61 2.0 9.0 0.00 0.00 0.00 70 1015.1
20260906141539 74 63 2.0 8.0 0.00 0.00 0.00 69 1015.1
20260906140049 73 96 1.0 6.0 0.00 0.00 0.00 71 1015.1
20260906134539 72 17 1.0 3.0 0.00 0.00 0.00 75 1015.0
20260906133046 71 34 1.0 4.0 0.00 0.00 0.00 77 1015.0
20260906132520 71 0 0.0 3.0 0.00 0.00 0.00 77 1014.9
20260906132020 71 49 0.0 3.0 0.00 0.00 0.00 76 1014.9
20260906131549 70 185 0.0 3.0 0.00 0.00 0.00 78 1015.0
20260906131020 70 0 1.0 3.0 0.00 0.00 0.00 79 1015.0
20260906130520 69 5 1.0 4.0 0.00 0.00 0.00 80 1014.9
20260906130052 69 61 0.0 4.0 0.00 0.00 0.00 82 1014.9
20260906124547 68 0 0.0 2.0 0.00 0.00 0.00 83 1014.9
20260906123040 66 0 0.0 2.0 0.00 0.00 0.00 87 1014.8
20260906122019 65 0 0.0 2.0 0.00 0.00 0.00 89 1014.7
20260906121555 64 101 0.0 2.0 0.00 0.00 0.00 91 1014.7
20260906120042 63 0 0.0 1.0 0.00 0.00 0.00 92 1014.6
20260906114543 62 0 0.0 1.0 0.00 0.00 0.00 93 1014.5
20260906113047 61 0 0.0 0.0 0.00 0.00 0.00 95 1014.3
20260906112021 61 0 0.0 0.0 0.00 0.00 0.00 93 1014.3
20260906111538 61 0 0.0 0.0 0.00 0.00 0.00 92 1014.3
20260906110040 61 0 0.0 1.0 0.00 0.00 0.00 92 1014.0
20260906104540 61 0 0.0 0.0 0.00 0.00 0.00 92 1013.9
20260906103050 62 0 0.0 0.0 0.00 0.00 0.00 91 1013.6
20260906102525 62 0 0.0 0.0 0.00 0.00 0.00 91 1013.4
20260906101538 62 0 0.0 1.0 0.00 0.00 0.00 91 1013.4
20260906100045 62 0 0.0 0.0 0.00 0.00 0.00 91 1013.2
20260906094541 62 0 0.0 1.0 0.00 0.00 0.00 91 1013.2
20260906093044 62 0 0.0 1.0 0.00 0.00 0.00 91 1013.1
20260906091542 62 0 0.0 0.0 0.00 0.00 0.00 91 1013.0
20260906090040 62 0 0.0 0.0 0.00 0.00 0.00 91 1012.8
20260906085023 62 0 0.0 0.0 0.00 0.00 0.00 91 1012.8
20260906084539 62 0 0.0 0.0 0.00 0.00 0.00 91 1012.8
20260906084025 62 0 0.0 0.0 0.00 0.00 0.00 91 1012.8
20260906083045 62 0 0.0 0.0 0.00 0.00 0.00 91 1012.7
20260906081541 62 0 0.0 0.0 0.00 0.00 0.00 91 1012.8
20260906080039 63 0 0.0 0.0 0.00 0.00 0.00 91 1012.6
20260906075523 63 0 0.0 0.0 0.00 0.00 0.00 90 1012.5
20260906075020 63 0 0.0 0.0 0.00 0.00 0.00 90 1012.5
20260906074539 63 0 0.0 0.0 0.00 0.00 0.00 90 1012.4
20260906074018 63 0 0.0 0.0 0.00 0.00 0.00 90 1012.4
20260906073523 63 0 0.0 0.0 0.00 0.00 0.00 90 1012.4
20260906073044 63 0 0.0 0.0 0.00 0.00 0.00 90 1012.4
20260906071540 63 0 0.0 0.0 0.00 0.00 0.00 89 1012.4
20260906070045 64 0 0.0 0.0 0.00 0.00 0.00 89 1012.3
20260906064542 64 0 0.0 0.0 0.00 0.00 0.00 89 1012.4
20260906063040 64 0 0.0 0.0 0.00 0.00 0.00 88 1012.4
20260906061550 64 0 0.0 0.0 0.00 0.00 0.00 88 1012.5
20260906060045 64 0 0.0 0.0 0.00 0.00 0.00 89 1012.4
20260906054540 64 0 0.0 0.0 0.00 0.00 0.00 88 1012.4
20260906053039 64 0 0.0 0.0 0.00 0.00 0.00 89 1012.7
20260906051538 65 0 0.0 0.0 0.00 0.00 0.00 89 1012.6
20260906051022 65 0 0.0 0.0 0.00 0.00 0.00 89 1012.6
20260906050526 65 0 0.0 0.0 0.00 0.00 0.00 89 1012.7
20260906050044 65 0 0.0 0.0 0.00 0.00 0.00 89 1012.7
20260906044543 65 0 0.0 0.0 0.00 0.00 0.00 89 1012.8
20260906043039 65 0 0.0 0.0 0.00 0.00 0.00 89 1012.9
20260906041545 65 0 0.0 0.0 0.00 0.00 0.00 89 1012.8
20260906040042 65 0 0.0 0.0 0.00 0.00 0.00 88 1012.8
20260906034539 65 0 0.0 0.0 0.00 0.00 0.00 89 1012.8
20260906034021 65 0 0.0 0.0 0.00 0.00 0.00 88 1012.9
20260906033521 65 0 0.0 0.0 0.00 0.00 0.00 89 1012.9
20260906033039 65 0 0.0 0.0 0.00 0.00 0.00 89 1012.9
20260906031547 66 0 0.0 0.0 0.00 0.00 0.00 87 1013.0
20260906030043 66 0 0.0 0.0 0.00 0.00 0.00 85 1012.8
20260906024540 67 0 0.0 0.0 0.00 0.00 0.00 84 1012.7
20260906024020 67 0 0.0 0.0 0.00 0.00 0.00 84 1012.8
20260906023521 67 0 0.0 0.0 0.00 0.00 0.00 84 1012.7
20260906023045 67 0 0.0 0.0 0.00 0.00 0.00 84 1012.6
20260906021547 68 0 0.0 0.0 0.00 0.00 0.00 82 1012.6
20260906020041 69 0 0.0 0.0 0.00 0.00 0.00 82 1012.7
20260906014547 69 0 0.0 0.0 0.00 0.00 0.00 83 1012.3
20260906014021 70 0 0.0 0.0 0.00 0.00 0.00 82 1012.3
20260906013045 70 0 0.0 0.0 0.00 0.00 0.00 79 1012.1
20260906011541 71 0 0.0 0.0 0.00 0.00 0.00 77 1012.0
20260906010049 72 0 0.0 0.0 0.00 0.00 0.00 77 1011.9
20260906004546 73 0 0.0 0.0 0.00 0.00 0.00 76 1011.9
20260906003041 73 0 0.0 0.0 0.00 0.00 0.00 74 1011.8
20260906002020 74 0 0.0 1.0 0.00 0.00 0.00 72 1011.7
20260906001549 75 0 0.0 1.0 0.00 0.00 0.00 69 1011.6
20260906001020 75 0 0.0 2.0 0.00 0.00 0.00 71 1011.5
20260906000046 76 0 0.0 2.0 0.00 0.00 0.00 71 1011.5
20260905234544 76 0 0.0 2.0 0.00 0.00 0.00 69 1011.5
20260905233038 77 0 0.0 1.0 0.00 0.00 0.00 67 1011.3
20260905232520 77 0 0.0 1.0 0.00 0.00 0.00 66 1011.1
20260905231539 78 0 0.0 1.0 0.00 0.00 0.00 65 1011.2
20260905230042 79 0 0.0 1.0 0.00 0.00 0.00 64 1011.2
20260905224538 79 41 0.0 4.0 0.00 0.00 0.00 64 1011.2
20260905223044 79 0 0.0 1.0 0.00 0.00 0.00 66 1011.2
20260905221022 80 0 0.0 3.0 0.00 0.00 0.00 65 1010.8
20260905220046 81 125 1.0 4.0 0.00 0.00 0.00 64 1010.7
20260905214541 81 115 0.0 8.0 0.00 0.00 0.00 63 1010.4
20260905213519 82 0 0.0 4.0 0.00 0.00 0.00 64 1010.4
20260905213039 82 0 0.0 4.0 0.00 0.00 0.00 65 1010.2
20260905212519 82 0 0.0 4.0 0.00 0.00 0.00 64 1010.2
20260905211542 82 0 0.0 2.0 0.00 0.00 0.00 63 1010.2
20260905210045 82 0 0.0 4.0 0.00 0.00 0.00 62 1010.0
20260905204540 83 0 0.0 3.0 0.00 0.00 0.00 67 1010.1